When you browse on this site, cookies collect data to enhance your experience and personalize the content and advertising you see.
Visit our Privacy Policy to learn more. By continuing to use the site, you agree to this use of cookies and data.

Hourly Weather Szklarnia

Today, 5 July, Sunday

Time Temperature Precipitation Wind Pressure Humidity
00:00 +18°C° 0 mm 3 mps 746 mmHg 81%
01:00 +18°C° 0 mm 3 mps 746 mmHg 81%
02:00 +18°C° 0.2 mm 3 mps 745 mmHg 84%
03:00 +17°C° 0.2 mm 3 mps 745 mmHg 87%
04:00 +17°C° 0.2 mm 3 mps 745 mmHg 90%
05:00 +17°C° 0.3 mm 3 mps 745 mmHg 90%
06:00 +18°C° 0.3 mm 3 mps 745 mmHg 91%
07:00 +18°C° 0.3 mm 3 mps 745 mmHg 91%
08:00 +20°C° 0 mm 4 mps 745 mmHg 83%
09:00 +22°C° 0 mm 5 mps 745 mmHg 75%
10:00 +25°C° 0 mm 5 mps 745 mmHg 66%
11:00 +25°C° 0.2 mm 5 mps 745 mmHg 68%
12:00 +25°C° 0.2 mm 5 mps 745 mmHg 70%
13:00 +25°C° 0.2 mm 5 mps 744 mmHg 72%
14:00 +24°C° 0.1 mm 6 mps 744 mmHg 72%
15:00 +24°C° 0.1 mm 6 mps 744 mmHg 71%
16:00 +24°C° 0.1 mm 6 mps 744 mmHg 71%
17:00 +23°C° 0 mm 5 mps 743 mmHg 75%
18:00 +23°C° 0 mm 4 mps 743 mmHg 78%
19:00 +22°C° 0 mm 4 mps 743 mmHg 82%
20:00 +21°C° 0 mm 4 mps 743 mmHg 84%
21:00 +21°C° 0 mm 4 mps 743 mmHg 87%
22:00 +20°C° 0 mm 4 mps 743 mmHg 89%
23:00 +20°C° 0 mm 4 mps 743 mmHg 90%

Tomorrow, 6 July, Monday

Time Temperature Precipitation Wind Pressure Humidity
00:00 +19°C° 0 mm 3 mps 743 mmHg 91%
01:00 +19°C° 0 mm 3 mps 743 mmHg 93%
02:00 +19°C° 0 mm 3 mps 743 mmHg 92%
03:00 +19°C° 0 mm 3 mps 743 mmHg 90%
04:00 +19°C° 0 mm 3 mps 742 mmHg 89%
05:00 +19°C° 0 mm 3 mps 743 mmHg 89%
06:00 +19°C° 0 mm 3 mps 743 mmHg 88%
07:00 +19°C° 0 mm 3 mps 743 mmHg 88%
08:00 +19°C° 0.1 mm 3 mps 743 mmHg 88%
09:00 +19°C° 0.1 mm 3 mps 743 mmHg 88%
10:00 +19°C° 0.1 mm 3 mps 743 mmHg 88%
11:00 +19°C° 0 mm 4 mps 743 mmHg 83%
12:00 +20°C° 0 mm 4 mps 742 mmHg 78%
13:00 +20°C° 0 mm 5 mps 742 mmHg 73%
14:00 +21°C° 0 mm 5 mps 742 mmHg 69%
15:00 +21°C° 0 mm 5 mps 743 mmHg 65%
16:00 +22°C° 0 mm 5 mps 743 mmHg 61%
17:00 +21°C° 0.1 mm 4 mps 743 mmHg 67%
18:00 +19°C° 0.1 mm 3 mps 743 mmHg 74%
19:00 +19°C° 0.1 mm 1 mps 743 mmHg 81%
20:00 +16°C° 0 mm 2 mps 743 mmHg 81%
21:00 +15°C° 0 mm 2 mps 744 mmHg 81%
22:00 +14°C° 0 mm 2 mps 744 mmHg 82%
23:00 +13°C° 0 mm 2 mps 744 mmHg 84%

Day after tomorrow, 7 July, Tuesday

Time Temperature Precipitation Wind Pressure Humidity
00:00 +13°C° 0 mm 2 mps 745 mmHg 85%
01:00 +12°C° 0 mm 2 mps 745 mmHg 87%
02:00 +12°C° 0 mm 2 mps 745 mmHg 88%
03:00 +12°C° 0 mm 2 mps 745 mmHg 88%
04:00 +10°C° 0 mm 2 mps 745 mmHg 89%
05:00 +12°C° 0 mm 3 mps 745 mmHg 84%
06:00 +13°C° 0 mm 3 mps 746 mmHg 79%
07:00 +15°C° 0 mm 4 mps 746 mmHg 74%
08:00 +17°C° 0 mm 4 mps 746 mmHg 70%
09:00 +17°C° 0 mm 4 mps 747 mmHg 66%
10:00 +18°C° 0 mm 4 mps 747 mmHg 62%
11:00 +18°C° 0 mm 4 mps 747 mmHg 60%
12:00 +19°C° 0 mm 5 mps 747 mmHg 59%
13:00 +19°C° 0 mm 5 mps 747 mmHg 57%
14:00 +19°C° 0 mm 5 mps 747 mmHg 59%
15:00 +18°C° 0 mm 4 mps 747 mmHg 60%
16:00 +18°C° 0 mm 4 mps 748 mmHg 61%
17:00 +17°C° 0 mm 4 mps 748 mmHg 66%
18:00 +16°C° 0 mm 3 mps 748 mmHg 70%
19:00 +14°C° 0 mm 3 mps 748 mmHg 75%
20:00 +14°C° 0 mm 2 mps 748 mmHg 80%
21:00 +12°C° 0 mm 2 mps 748 mmHg 84%
22:00 +10°C° 0 mm 2 mps 749 mmHg 89%
23:00 +9°C° 0 mm 2 mps 749 mmHg 90%

8 July, Wednesday

Time Temperature Precipitation Wind Pressure Humidity
00:00 +9°C° 0 mm 2 mps 749 mmHg 91%
01:00 +8°C° 0 mm 2 mps 749 mmHg 92%
02:00 +8°C° 0 mm 2 mps 749 mmHg 92%
03:00 +8°C° 0 mm 2 mps 748 mmHg 92%
04:00 +8°C° 0 mm 2 mps 748 mmHg 92%
05:00 +10°C° 0 mm 2 mps 748 mmHg 85%
06:00 +13°C° 0 mm 2 mps 748 mmHg 78%
07:00 +15°C° 0 mm 2 mps 748 mmHg 70%
08:00 +16°C° 0 mm 3 mps 748 mmHg 66%
09:00 +17°C° 0 mm 3 mps 748 mmHg 62%
10:00 +18°C° 0 mm 3 mps 748 mmHg 58%
11:00 +18°C° 0 mm 3 mps 748 mmHg 58%
12:00 +19°C° 0 mm 4 mps 747 mmHg 57%
13:00 +19°C° 0 mm 4 mps 747 mmHg 57%
14:00 +19°C° 0.1 mm 4 mps 747 mmHg 61%
15:00 +18°C° 0.1 mm 4 mps 746 mmHg 65%
16:00 +18°C° 0.1 mm 4 mps 746 mmHg 69%
17:00 +17°C° 0.2 mm 3 mps 746 mmHg 76%
18:00 +14°C° 0.2 mm 3 mps 745 mmHg 84%
19:00 +13°C° 0.2 mm 3 mps 745 mmHg 91%
20:00 +13°C° 0 mm 3 mps 745 mmHg 92%
21:00 +12°C° 0 mm 3 mps 745 mmHg 93%
22:00 +11°C° 0 mm 3 mps 745 mmHg 94%
23:00 +11°C° 0 mm 3 mps 745 mmHg 95%

9 July, Thursday

Time Temperature Precipitation Wind Pressure Humidity
00:00 +11°C° 0 mm 3 mps 745 mmHg 96%
01:00 +11°C° 0 mm 3 mps 745 mmHg 96%
02:00 +11°C° 0 mm 3 mps 746 mmHg 96%
03:00 +10°C° 0 mm 3 mps 746 mmHg 96%
04:00 +10°C° 0 mm 3 mps 746 mmHg 96%
05:00 +11°C° 0 mm 4 mps 747 mmHg 91%
06:00 +12°C° 0 mm 4 mps 747 mmHg 86%
07:00 +14°C° 0 mm 4 mps 748 mmHg 81%
08:00 +15°C° 0 mm 5 mps 748 mmHg 74%
09:00 +17°C° 0 mm 5 mps 748 mmHg 66%
10:00 +19°C° 0 mm 5 mps 749 mmHg 59%
11:00 +19°C° 0 mm 5 mps 749 mmHg 58%
12:00 +20°C° 0 mm 5 mps 749 mmHg 57%
13:00 +20°C° 0 mm 5 mps 749 mmHg 56%
14:00 +20°C° 0.1 mm 5 mps 749 mmHg 57%
15:00 +19°C° 0.1 mm 5 mps 749 mmHg 59%
16:00 +19°C° 0.1 mm 4 mps 749 mmHg 60%
17:00 +18°C° 0 mm 4 mps 749 mmHg 67%
18:00 +17°C° 0 mm 3 mps 749 mmHg 73%
19:00 +15°C° 0 mm 2 mps 749 mmHg 80%
20:00 +14°C° 0 mm 2 mps 749 mmHg 84%
21:00 +12°C° 0 mm 1 mps 749 mmHg 88%
22:00 +11°C° 0 mm 1 mps 749 mmHg 93%
23:00 +10°C° 0 mm 1 mps 750 mmHg 93%

10 July, Friday

Time Temperature Precipitation Wind Pressure Humidity
00:00 +10°C° 0 mm 1 mps 750 mmHg 93%
01:00 +10°C° 0 mm 1 mps 750 mmHg 93%
02:00 +10°C° 0 mm 1 mps 749 mmHg 94%
03:00 +10°C° 0 mm 1 mps 749 mmHg 94%
04:00 +10°C° 0 mm 1 mps 749 mmHg 95%
05:00 +12°C° 0 mm 2 mps 749 mmHg 88%
06:00 +13°C° 0 mm 2 mps 749 mmHg 81%
07:00 +14°C° 0 mm 3 mps 749 mmHg 74%
08:00 +17°C° 0 mm 3 mps 749 mmHg 69%
09:00 +18°C° 0 mm 3 mps 749 mmHg 63%
10:00 +19°C° 0 mm 3 mps 748 mmHg 57%
11:00 +20°C° 0 mm 3 mps 748 mmHg 56%
12:00 +21°C° 0 mm 4 mps 747 mmHg 54%
13:00 +22°C° 0 mm 4 mps 747 mmHg 52%
14:00 +22°C° 0 mm 4 mps 747 mmHg 54%
15:00 +22°C° 0 mm 4 mps 746 mmHg 57%
16:00 +22°C° 0 mm 4 mps 746 mmHg 59%
17:00 +21°C° 0 mm 3 mps 746 mmHg 64%
18:00 +20°C° 0 mm 3 mps 746 mmHg 69%
19:00 +19°C° 0 mm 3 mps 745 mmHg 73%
20:00 +19°C° 0 mm 3 mps 745 mmHg 73%
21:00 +18°C° 0 mm 3 mps 745 mmHg 73%
22:00 +18°C° 0 mm 3 mps 745 mmHg 73%
23:00 +17°C° 0.1 mm 3 mps 745 mmHg 79%
Show more